Simultaneous Nadir Overpasses (SNOs) Predictions

Prediction of SNOs between METOP-B and NOAA-19 Satellite Orbit:

Table of predicted SNOs for the next 14.0 days since TLE Epoch: 8/13/2022
Index Date (METOP-B) Time (METOP-B) Lat,Lon (METOP-B) SZA (METOP-B ) Date (NOAA-19) Time (NOAA-19) Lat,Lon (NOAA-19) SZA (NOAA-19 ) Distance(km) Time Diff (sec)
1 08/21/2022 07:40:03 80.87, 98.51 70.25 08/21/2022 07:38:59 80.88, 98.65 70.25 2.85 64
2 08/21/2022 08:30:43 -80.88, -93.83 109.70 08/21/2022 08:30:04 -80.88, -93.99 109.73 2.91 39
3 08/21/2022 09:21:24 80.88, 73.36 70.30 08/21/2022 09:20:58 80.88, 73.45 70.30 1.49 26
4 08/21/2022 10:12:05 -80.87,-119.33 109.70 08/21/2022 10:12:03 -80.87,-119.19 109.69 2.46 2
5 08/21/2022 11:02:46 80.87, 47.86 70.30 08/21/2022 11:02:58 80.88, 47.87 70.32 1.00 12
6 08/21/2022 11:53:27 -80.87,-144.83 109.69 08/21/2022 11:54:03 -80.87,-144.77 109.67 1.51 36
7 08/21/2022 12:44:07 80.88, 22.71 70.35 08/21/2022 12:44:57 80.87, 22.67 70.36 0.96 50



Historial Predications of SNOs between METOP-B and NOAA-19
